Flag for U.S.A. Weather past 2 weeks in St. Paul, Minnesota, U.S.A.

Now
59 °F

Partly sunny.


Feels Like: 59 °F
Forecast: 55 / 69 °F
Wind: No wind

Location: St. Paul Downtown Holman Field

Current Time: May 26, 2015 at 8:02:54 AM

Latest Report: May 26, 2015 at 7:03 AM


Visibility: 9 mi

Pressure: 29.82 "Hg

Humidity: 93%

Dew point: 57 °F

Location of St. PaulLocation

Historic Weather in St. Paul — Graph

°F

St. Paul temperature yesterday

Maximum temperature yesterday: 72 °F (at 5:53 PM)
Minimum temperature yesterday: 58 °F (at 12:53 AM)
Average temperature yesterday: 63 °F

Past Weeks' High & Low Weather Summary

 TemperatureHumidityPressure
High75 °F (May 16, 5:53 PM)100% (May 14, 8:53 PM)30.43 "Hg (May 14, 8:53 PM)
Low35 °F (May 19, 5:53 AM)25% (May 21, 6:53 PM)29.54 "Hg (May 17, 5:53 PM)
Average56 °F70%30.02 "Hg
* Reported May 11 7:53 AM — May 26 7:03 AM, St. Paul, Weather by CustomWeather, © 2015

Note: Actual official high and low records may vary slightly from our data, if they occured in-between our weather recording intervals... More about our weather records

Advertising

St. Paul weather history for previous 24 hours

 ConditionsComfort  
Time TempWeatherWind HumidityBarometerVisibility
7:03 AM
Tue, May 26
59 °FPartly sunny.No wind93%29.82 "Hg9 mi
6:53 AM58 °FScattered clouds.No wind97%29.81 "Hg9 mi
5:53 AM58 °FClear.3 mph93%29.78 "Hg10 mi
4:53 AM56 °FClear.5 mph100%29.77 "Hg7 mi
3:53 AM57 °FPassing clouds.3 mph100%29.78 "Hg10 mi
2:53 AM58 °FClear.No wind97%29.78 "Hg10 mi
1:53 AM60 °FPassing clouds.3 mph93%29.78 "Hg10 mi
12:53 AM60 °FClear.No wind93%29.78 "Hg10 mi
11:53 PM
Mon, May 25
62 °FPassing clouds.No wind90%29.76 "Hg9 mi
10:53 PM63 °FClear.3 mph84%29.77 "Hg10 mi
9:53 PM62 °FClear.No wind90%29.73 "Hg10 mi
8:53 PM68 °FScattered clouds.5 mph70%29.73 "Hg10 mi
7:53 PM71 °FPassing clouds.6 mph63%29.71 "Hg10 mi
6:53 PM71 °FScattered clouds.9 mph66%29.71 "Hg10 mi
5:53 PM72 °FBroken clouds.14 mph64%29.72 "Hg10 mi
4:53 PM71 °FPartly sunny.10 mph68%29.72 "Hg10 mi
3:53 PM68 °FMostly cloudy.12 mph70%29.72 "Hg10 mi
2:53 PM67 °FOvercast.13 mph73%29.71 "Hg10 mi
1:53 PM66 °FMostly cloudy.13 mph75%29.70 "Hg10 mi
12:53 PM66 °FMore clouds than sun.16 mph75%29.70 "Hg10 mi
11:53 AM64 °FMostly cloudy.9 mph84%29.70 "Hg10 mi
10:53 AM64 °FPartly sunny.10 mph87%29.68 "Hg10 mi
9:53 AM63 °FOvercast.7 mph93%29.67 "Hg10 mi
9:02 AM60 °FFog.6 mph100%29.67 "Hg4 mi
8:53 AM60 °FFog.7 mph100%29.66 "Hg3 mi
Weather by CustomWeather, © 2015

See weather overviewHow to use our weather pages